Preview of NWS' New Version of Forecast
This preview is not operational and should not be used for support decisions.

Regional Weather Roundup (RWR)

Issued by National Weather Service (NWS)

                            
000
ASUS45 KABQ 191401
RWRNM 
NEW MEXICO REGIONAL WEATHER ROUNDUP
NATIONAL WEATHER SERVICE ALBUQUERQUE NM
800 AM MDT FRI APR 19 2019

NOTE: "FAIR" MEANS FEW OR NO CLOUDS BELOW 12,000 FEET AGL WITH NO
       SIGNIFICANT WEATHER OR OBSTRUCTIONS TO VISION.

      THIS PRODUCT IS RELEASED AS TWO VERSIONS.  ONE VERSION NEAR
      THE TOP OF THE HOUR CONTAINING PRELIMINARY DATA FROM ALBUQUERQUE
      AND OTHER STATIONS.  A FINAL VERSION WITH ADDITIONAL DATA IS 
      ISSUED ABOUT 10 MINUTES AFTER THE HOUR.
 
NMZ501-503-504-510>518-191500-
NORTHWEST PLATEAU/NORTHCENTRAL MOUNTAINS
  
CITY           SKY/WX    TMP DP  RH WIND       PRES   REMARKS
FARMINGTON     FAIR      45  22  40 E10       30.28R                  
LOS ALAMOS       N/A     44  32  60 CALM      30.35R                  
SANTA FE       FAIR      46  33  60 E8        30.31R                  
TAOS           FAIR      39  19  44 N3        30.36R                  

$$
NMZ402-403-502-505>509-191500-
WESTCENTRAL MOUNTAINS/SOUTHWEST MOUNTAINS
  
CITY           SKY/WX    TMP DP  RH WIND       PRES   REMARKS
GALLUP         FAIR      38  25  59 CALM      30.34R                  
GRANTS         FAIR      39  29  69 N3        30.34R                  
SILVER CITY    FAIR      56  24  28 N6        30.26R                  

$$
NMZ407-409-411-412-191500-
SOUTHERN DESERTS
  
CITY           SKY/WX    TMP DP  RH WIND       PRES   REMARKS
DEMING         FAIR      52  32  46 CALM      30.21R                  
HOLLOMAN AFB   FAIR      48  37  66 SE7       30.25R                  
ALAMOGORDO     FAIR      48  37  66 S10       30.24R                  
T OR C         FAIR      57  29  34 N7        30.24R                  

$$
NMZ519>523-191500-
CENTRAL VALLEYS/CENTRAL HIGHLANDS
  
CITY           SKY/WX    TMP DP  RH WIND       PRES   REMARKS
ALBUQUERQUE    FAIR      50  35  56 NE3       30.29R                  
DOUBLE EAGLE   SUNNY     45  36  70 CALM      30.31R                  
CLINES CORNERS FAIR      43  32  65 W9        30.33R                  
BELEN          FAIR      49  38  65 W5        30.29R                  
SOCORRO        NOT AVBL                                               

$$
NMZ524>526-539-540-191500-
SOUTHCENTRAL MOUNTAINS
  
CITY           SKY/WX    TMP DP  RH WIND       PRES   REMARKS
RUIDOSO        FAIR      43  28  56 CALM      30.35R                  

$$
NMZ527>531-191500-
NORTHEAST HIGHLANDS/NORTHEAST PLAINS
  
CITY           SKY/WX    TMP DP  RH WIND       PRES   REMARKS
LAS VEGAS      FAIR      42  35  76 S8        30.30R                  
RATON          FAIR      38  29  70 NE6       30.27R WCI  33          
CLAYTON        FAIR      46  26  45 CALM      30.25R                  

$$
NMZ532>537-191500-
EASTCENTRAL PLAINS
  
CITY           SKY/WX    TMP DP  RH WIND       PRES   REMARKS
SANTA ROSA     FAIR      43  33  67 CALM      30.28R                  
TUCUMCARI      FAIR      47  39  74 CALM      30.25R                  
CANNON AFB     FAIR      47  33  58 NW6       30.29R                  
CLOVIS AIRPORT FAIR      47  35  63 W6        30.29R                  

$$
NMZ028-029-538-191500-
SOUTHEAST PLAINS
  
CITY           SKY/WX    TMP DP  RH WIND       PRES   REMARKS
ROSWELL        FAIR      50  34  54 CALM      30.27R                  
ARTESIA        FAIR      50  32  50 CALM      30.30R                  
CARLSBAD       FAIR      55  33  43 W5        30.28R                  
HOBBS          SUNNY     52  32  46 N7        30.29R                  


$$